Location: Newark
(46.9000°N, 28.3500°E)
Time: 00:02:11
(UTC+00:00)

Explorer 7 - Pass Details

Date: 29 August 2019
Orbit: 485 x 680 km, 50.3° (Epoch: 22 October)

Event Time Altitude Azimuth Distance (km) Brightness Sun altitude
Rises 03:24:59 0° 179° (S) 3,016 10.4 -0.3°
Reaches altitude 10° 03:29:18 10° 143° (SE) 2,111 10.1 0.4°
Maximum altitude 03:30:29 11° 129° (SE) 2,056 10.3 0.6°
Drops below altitude 10° 03:31:40 10° 115° (ESE) 2,109 10.7 0.8°
Sets 03:35:57 0° 79° (E) 3,005 14.7 1.5°
